INTELSAT 20 (IS-20)

Last updated on Sun Dec 07 2025 00:02:47 GMT+0000 (Coordinated Universal Time)

1 38740U 12043A 25340.51169024 -.00000018 00000+0 00000+0 0 9992 2 38740 0.0079 76.3857 0002762 107.7543 144.1327 1.00270942 48818
UTC large
Height (km)
Speed (km/s)
/
Latitude / Longitude
Inclination (degrees)
Orbital Period (minutes)
Azimuth
Elevation
Range (km)
Doppler Factor

Next 0 passes for location: London (51.5072 / 0.1276)

Sorry there are no passes over London.